カタログに戻る

STARLINK-11643

運用中通信VLEO
NORAD 63192·PAYLOAD·🇺🇸 United States

打ち上げ Mar 13, 2025 から Cape Canaveral Space Force Station

Loading…

次のパス (今後24時間)

TLE

最新Source: CelesTrak SupGP

元期: Sep 15, 2026, 03:57 UTC

1 63192C 25048K   26258.16506944 -.00039700  00000+0 -30814-3 0  2585
2 63192  43.0005 257.8102 0001496 254.9799 356.3631 15.70874126    14

AllMySatでSTARLINK-11643をリアルタイム追跡

Download on the App Store